Location: El Chorro
(10.0985°N, 67.3542°W)
Time: 19:10:48
(UTC+00:00)

Cosmos 968 Rocket - Pass Details

Date: 15 November 2025
Orbit: 735 x 766 km, 74.0° (Epoch: 06 December)

Event Time Altitude Azimuth Distance (km) Brightness Sun altitude
Rises 23:29:23 0° 202° (SSW) 3,158 7.2 -20.9°
Reaches altitude 10° 23:31:46 10° 207° (SSW) 2,238 6.5 -21.5°
Maximum altitude 23:36:42 53° 283° (WNW) 910 4.1 -22.6°
Enters shadow 23:40:58 14° 358° (N) 1,997 5.5 -23.6°
